Location: SE Lincoln, NE
(40.7805°N, 96.6275°W)
Time: 05:19:42
(UTC-05:00)

USA 308 - Pass Details

Date: 15 May 2021
Orbit: 568 x 576 km, 54.0° (Epoch: 10 May)

Event Time Altitude Azimuth Distance (km) Brightness Sun altitude
Rises 22:52:40 0° 305° (NW) 2,783 7.7 -20.7°
Reaches altitude 10° 22:55:01 10° 298° (WNW) 1,882 6.5 -20.9°
Maximum altitude 22:59:03 41° 228° (SW) 834 3.6 -21.4°
Enters shadow 22:59:26 40° 213° (SSW) 849 3.5 -21.4°
